Meteo Giornale » Osservazioni meteo Italia » Treviso-S Angelo

ore: 14:50 - Osservazioni Meteo Treviso-S Angelo
Lat. 45° 39' N Lon. 12° 11' E Alt. 18 metri s.l.m.

sereno Europe/Rome

10 °C

Sereno

Temp. 24 Ore

5 °C

15 °C

Nord-Est

9.3 Km/h

Dew point -2 °C

Umidità 42 %

Visibilità  10 Km

Il sole sorge alle ore 06:38

Il sole tramonta alle ore 18:06

Data e Ora Cielo e Fenomeni T °C DP °C Um. % Pres. hPa Vis. km Vento km/h
Oggi h: 14:50 sereno Sereno 10 -2 42 1029 10 NE 9.3
Oggi h: 14:20 sereno Sereno 9 -2 45 1029 10 N 9.3
Oggi h: 13:50 poco_nuvoloso Poco Nuvoloso 9 -2 45 1029 10 N 5.5
Oggi h: 12:50 nuvoloso Nuvoloso 9 -2 45 1030 10 N/NE 9.3
Oggi h: 12:20 nuvoloso Nuvoloso 8 -3 45 1031 10 E/NE 7.4
Oggi h: 11:50 nuvoloso Nuvoloso 7 -3 48 1031 10 E 13
Oggi h: 11:20 nuvoloso Nuvoloso 7 -4 45 1031 10 E/NE 16.7
Oggi h: 10:50 poco_nuvoloso Poco Nuvoloso 8 -2 49 1031 10 E 14.8
Oggi h: 10:20 sereno Sereno 7 -4 45 1031 10 E 13
Oggi h: 09:50 poco_nuvoloso Poco Nuvoloso 7 -3 48 1031 10 E/NE 16.7
Oggi h: 08:50 coperto Coperto 6 -2 56 1030 10 E/NE 14.8
Oggi h: 08:20 coperto Coperto 5 -1 65 1030 10 E/NE 14.8
Oggi h: 06:50 coperto Coperto 5 -1 65 1028 10 NE 13
Oggi h: 06:20 coperto Coperto 5 -1 65 1028 10 E/NE 16.7
Oggi h: 05:50 molto_nuvoloso Molto Nuvoloso 5 -0 70 1027 10 E/NE 20.3
Oggi h: 05:20 molto_nuvoloso Molto Nuvoloso 5 -0 70 1027 10 E/NE 20.3
Oggi h: 04:50 coperto Coperto 6 1 70 1027 10 NE 11.1
Oggi h: 04:20 molto_nuvoloso Molto Nuvoloso 6 2 75 1026 10 NE 13
Oggi h: 03:50 coperto Coperto 6 2 75 1025 10 NE 16.7
Oggi h: 03:20 molto_nuvoloso Molto Nuvoloso 6 3 81 1025 10 NE 13
Oggi h: 02:50 coperto Coperto 6 4 86 1025 10 NE 16.7
Oggi h: 02:20 coperto Coperto 6 4 86 1025 10 E/NE 18.5
Oggi h: 01:50 coperto_pioggia Pioviggine Leggera 6 5 93 1025 10 E/NE 24
Oggi h: 01:20 coperto_pioggia Pioggia Debole 7 5 87 1024 10 E/NE 27.8
Oggi h: 00:50 coperto_pioggia Pioggia Debole 8 6 87 1023 10 E 25.9
Oggi h: 00:20 coperto_pioggia Pioggia 9 7 87 1023 8 E/NE 24
Ieri h: 23:50 coperto_pioggia Pioggia Debole 9 7 87 1022 10 NE 9.3
Ieri h: 23:20 coperto_pioggia Pioggia Debole 9 7 87 1022 10 NE 14.8
Ieri h: 22:20 foschia Foschia 11 8 81 1020 5 E/NE 14.8
Ieri h: 21:50 foschia Foschia 10 8 87 1020 4 N/NE 13
Ieri h: 21:20 foschia Foschia 10 8 87 1019 4 N/NE 7.4
Ieri h: 20:50 foschia Foschia 10 8 87 1019 5 NE 7.4
Ieri h: 19:50 foschia Foschia 10 8 87 1018 3 N 3.7
Ieri h: 19:20 foschia Foschia 10 7 81 1018 3 N 5.5
Ieri h: 18:50 foschia Foschia 11 8 81 1017 4 N 5.5
Ieri h: 18:20 foschia Foschia 11 7 76 1017 5 N 5.5
Ieri h: 17:50 molto_nuvoloso Molto Nuvoloso 13 7 66 1017 6 E/SE 7.4
Ieri h: 17:20 molto_nuvoloso Molto Nuvoloso 13 7 66 1016 7 E/SE 7.4
Ieri h: 16:50 poco_nuvoloso Poco Nuvoloso 14 6 58 1016 7 N 5.5
Ieri h: 16:20 poco_nuvoloso Poco Nuvoloso 14 6 58 1016 8 N 5.5
Ieri h: 15:50 poco_nuvoloso Poco Nuvoloso 15 6 54 1015 8 N 3.7
Ieri h: 15:20 poco_nuvoloso Poco Nuvoloso 15 5 51 1015 8 N 1.8
Ieri h: 14:50 poco_nuvoloso Poco Nuvoloso 14 5 54 1015 8 N 5.5